Grand Junction, CO

5:13 AM MDT on October 17, 2019 (GMT -0600)
Walker

Weather History for KGJT - March, 2019

Change the Weather History Date:

Thursday, March 7, 2019

  Actual Average Record
Temperature  
Mean Temperature 48 °F 42 °F  
Max Temperature 56 °F 54 °F 70 °F (1910)
Min Temperature 39 °F 30 °F 12 °F (1971)
Degree Days  
Heating Degree Days 17 23  
Month to date heating degree days 147 169  
Since 1 July heating degree days 4602 4548  
Cooling Degree Days 0 0  
Month to date cooling degree days 0 0  
Year to date cooling degree days 0 0  
Moisture  
Dew Point 38 °F    
Average Humidity 69    
Maximum Humidity 96    
Minimum Humidity 41    
Precipitation  
Precipitation T in 0.03 in 0.27 in (2016)
Month to date precipitation 0.95 0.18  
Year to date precipitation 2.39 1.30  
Snow  
Snow 0.00 in 0.10 in 1.20 in (2009)
Month to date snowfall 0.0 0.6  
Since 1 July snowfall 17.4 16.1  
Snow Depth 0.00 in    
Sea Level Pressure  
Sea Level Pressure 29.80 in    
Wind  
Wind Speed 7 mph (East)    
Max Wind Speed 24 mph    
Max Gust Speed 34 mph    
Visibility 10 miles    
Events      
T = Trace of Precipitation, MM = Missing Value Source: NWS Daily Summary

Daily Weather History Graph

Daily Weather History Graph

Search for Another Location

Airport or City:

Astronomy

Mar. 07, 2019 Rise Set
Actual Time 6:38 AM MST 6:12 PM MST
Civil Twilight 6:11 AM MST 6:39 PM MST
Nautical Twilight 5:40 AM MST 7:10 PM MST
Astronomical Twilight 5:09 AM MST 7:41 PM MST
Moon 7:28 AM MST (3/7) 7:19 PM MST (3/7)
Length of Visible Light 12h 28m
Length of Day
11h 34m
New Moon, 1% of the Moon is Illuminated
Mar 7
New Moon
Mar 14
First Quarter
Mar 20
Full
Mar 27
Last Quarter
Apr 5
New

Hourly Weather History & Observations

Time (MST) Temp. Windchill Dew Point Humidity Pressure Visibility Wind Dir Wind Speed Gust Speed Precip Events Conditions
12:53 AM 42.1 °F 40.2 °F 41.0 °F 96% 29.81 in 10.0 mi North 3.5 mph - N/A   Overcast
1:53 AM 42.1 °F 40.2 °F 39.0 °F 89% 29.82 in 10.0 mi SE 3.5 mph - N/A   Partly Cloudy
2:53 AM 43.0 °F 38.8 °F 39.0 °F 86% 29.81 in 10.0 mi NE 6.9 mph - N/A   Mostly Cloudy
3:53 AM 41.0 °F 36.4 °F 39.9 °F 96% 29.80 in 10.0 mi SW 6.9 mph - N/A   Overcast
4:53 AM 44.1 °F 42.5 °F 39.0 °F 82% 29.82 in 10.0 mi ESE 3.5 mph - N/A   Mostly Cloudy
5:53 AM 44.1 °F 40.8 °F 37.0 °F 76% 29.81 in 10.0 mi ENE 5.8 mph - N/A   Scattered Clouds
6:53 AM 39.9 °F 35.1 °F 37.9 °F 93% 29.83 in 10.0 mi ENE 6.9 mph - N/A   Mostly Cloudy
7:53 AM 44.1 °F 38.1 °F 37.9 °F 79% 29.83 in 10.0 mi East 11.5 mph - N/A   Mostly Cloudy
8:53 AM 44.1 °F 40.1 °F 41.0 °F 89% 29.85 in 10.0 mi SW 6.9 mph - N/A   Scattered Clouds
9:53 AM 46.9 °F - 41.0 °F 80% 29.84 in 10.0 mi West 3.5 mph - N/A   Mostly Cloudy
10:53 AM 48.0 °F - 42.1 °F 80% 29.83 in 10.0 mi Calm Calm - N/A   Mostly Cloudy
11:53 AM 52.0 °F - 39.9 °F 63% 29.81 in 10.0 mi North 3.5 mph - N/A   Mostly Cloudy
12:53 PM 54.0 °F - 43.0 °F 66% 29.81 in 10.0 mi ESE 4.6 mph - 0.00 in   Mostly Cloudy
1:53 PM 54.0 °F - 36.0 °F 51% 29.80 in 10.0 mi West 21.9 mph 29.9 mph 0.00 in   Overcast
2:53 PM 55.0 °F - 35.1 °F 47% 29.79 in 10.0 mi West 5.8 mph 18.4 mph N/A   Mostly Cloudy
3:53 PM 53.1 °F - 34.0 °F 48% 29.80 in 10.0 mi West 11.5 mph - N/A   Mostly Cloudy
4:53 PM 54.0 °F - 35.1 °F 49% 29.78 in 10.0 mi Calm Calm - N/A   Clear
5:53 PM 54.0 °F - 30.9 °F 41% 29.77 in 10.0 mi Calm Calm - N/A   Mostly Cloudy
6:53 PM 48.9 °F - 39.0 °F 69% 29.78 in 10.0 mi ESE 5.8 mph - N/A   Overcast
7:53 PM 46.0 °F - 37.9 °F 73% 29.79 in 10.0 mi Calm Calm - N/A   Mostly Cloudy
8:53 PM 46.0 °F 40.6 °F 37.9 °F 73% 29.79 in 10.0 mi ESE 11.5 mph - N/A   Overcast
9:53 PM 44.1 °F 37.7 °F 35.1 °F 71% 29.79 in 10.0 mi East 12.7 mph - N/A   Mostly Cloudy
10:53 PM 43.0 °F 37.2 °F 35.1 °F 74% 29.78 in 10.0 mi East 10.4 mph - N/A   Scattered Clouds
11:53 PM 43.0 °F 36.4 °F 35.1 °F 74% 29.74 in 10.0 mi East 12.7 mph - N/A   Mostly Cloudy